Farmington, NM

6:38 PM MDT on August 27, 2016 (GMT -0600)
Four Corners Regional

Weather History for KFMN - January, 2014

Change the Weather History Date:

Sunday, January 26, 2014

  Actual Average Record
Temperature  
Mean Temperature 30 °F -  
Max Temperature 48 °F 43 °F 57 °F (2015)
Min Temperature 12 °F 20 °F 5 °F (1988)
Degree Days  
Heating Degree Days 35    
Moisture  
Dew Point 7 °F    
Average Humidity 37    
Maximum Humidity 65    
Minimum Humidity 9    
Precipitation  
Precipitation 0.00 in - - ()
Sea Level Pressure  
Sea Level Pressure 30.13 in    
Wind  
Wind Speed 6 mph (WNW)    
Max Wind Speed 17 mph    
Max Gust Speed 23 mph    
Visibility 10 miles    
Events      
Averages and records for this station are not official NWS values.
T = Trace of Precipitation, MM = Missing Value Source: NWS Daily Summary

Daily Weather History Graph

Daily Weather History Graph

Search for Another Location

Airport or City:

Trip Planner

Search our weather history database for the weather conditions in past years. The results will help you decide how hot, cold, wet, or windy it might be!

Date:

Astronomy

Jan. 26, 2014 Rise Set
Actual Time 7:19 AM MST 5:32 PM MST
Civil Twilight 6:51 AM MST 5:59 PM MST
Nautical Twilight 6:20 AM MST 6:30 PM MST
Astronomical Twilight 5:49 AM MST 7:01 PM MST
Moon 2:59 AM MST (1/26) 1:25 PM MST (1/26)
Length of Visible Light 11h 08m
Length of Day
10h 12m
Waning Crescent, 23% of the Moon is Illuminated
Jan 26
Waning Crescent
Jan 30
New
Feb 6
First Quarter
Feb 14
Full
Feb 22
Last Quarter

Hourly Weather History & Observations

Time (MST) Temp. Windchill Dew Point Humidity Pressure Visibility Wind Dir Wind Speed Gust Speed Precip Events Conditions
12:53 AM 19.0 °F - 3.9 °F 52% 30.21 in 10.0 mi Calm Calm - N/A   Clear
1:53 AM 16.0 °F 10.4 °F 3.0 °F 57% 30.21 in 10.0 mi NE 3.5 mph - N/A   Clear
2:53 AM 15.1 °F 9.4 °F 3.0 °F 59% 30.20 in 10.0 mi East 3.5 mph - N/A   Clear
3:53 AM 19.0 °F 9.0 °F 7.0 °F 59% 30.17 in 10.0 mi East 8.1 mph - N/A   Clear
4:53 AM 16.0 °F 6.3 °F 5.0 °F 62% 30.19 in 10.0 mi ENE 6.9 mph - N/A   Clear
5:53 AM 14.0 °F 6.5 °F 3.9 °F 64% 30.21 in 10.0 mi East 4.6 mph - N/A   Clear
6:53 AM 14.0 °F 2.9 °F 3.9 °F 64% 30.24 in 10.0 mi NE 8.1 mph - N/A   Clear
7:53 AM 17.1 °F 6.6 °F 7.0 °F 65% 30.24 in 10.0 mi East 8.1 mph - N/A   Clear
8:53 AM 23.0 °F 14.7 °F 10.0 °F 58% 30.22 in 10.0 mi East 6.9 mph - N/A   Clear
9:53 AM 28.0 °F 20.8 °F 10.9 °F 49% 30.22 in 10.0 mi SE 6.9 mph - N/A   Clear
10:53 AM 35.1 °F - 10.0 °F 35% 30.20 in 10.0 mi Calm Calm - N/A   Clear
11:53 AM 41.0 °F 37.1 °F 9.0 °F 27% 30.16 in 10.0 mi West 5.8 mph - N/A   Clear
12:53 PM 46.0 °F 40.2 °F 8.1 °F 21% 30.08 in 10.0 mi West 12.7 mph - N/A   Clear
1:53 PM 46.9 °F - 6.1 °F 19% 30.05 in 10.0 mi West 17.3 mph 23.0 mph N/A   Clear
2:53 PM 48.9 °F - 7.0 °F 18% 30.03 in 10.0 mi West 13.8 mph - N/A   Clear
3:53 PM 48.9 °F - 7.0 °F 18% 30.01 in 10.0 mi West 15.0 mph - N/A   Clear
4:53 PM 46.9 °F - 8.1 °F 21% 30.02 in 10.0 mi West 11.5 mph - N/A   Clear
5:53 PM 43.0 °F 37.7 °F 7.0 °F 23% 30.05 in 10.0 mi West 9.2 mph - N/A   Clear
6:53 PM 37.0 °F 31.6 °F 7.0 °F 29% 30.08 in 10.0 mi WSW 6.9 mph - N/A   Clear
7:53 PM 36.0 °F 32.1 °F 7.0 °F 30% 30.07 in 10.0 mi WSW 4.6 mph - N/A   Clear
8:53 PM 34.0 °F - 8.1 °F 34% 30.06 in 10.0 mi Calm Calm - N/A   Clear
9:53 PM 34.0 °F 28.8 °F 9.0 °F 35% 30.06 in 10.0 mi West 5.8 mph - N/A   Clear
10:53 PM 34.0 °F 29.8 °F 8.1 °F 34% 30.04 in 10.0 mi West 4.6 mph - N/A   Clear
11:53 PM 33.1 °F - 8.1 °F 35% 30.02 in 10.0 mi Calm Calm - N/A   Clear